Weather History for Conway, SC

Change the Weather History Date:

Thursday, December 6, 2012

  Actual Average Record
Temperature  
Mean Temperature 55 °F -  
Max Temperature 60 °F 60 °F 80 °F (2013)
Min Temperature 50 °F 35 °F 23 °F (2010)
Degree Days  
Heating Degree Days 10    
Growing Degree Days 5 (Base 50)    
Moisture  
Dew Point 46 °F    
Average Humidity 75    
Maximum Humidity 100    
Minimum Humidity 63    
Precipitation  
Precipitation 0.00 in - - ()
Sea Level Pressure  
Sea Level Pressure 30.20 in    
Wind  
Wind Speed 9 mph (NNE)    
Max Wind Speed 15 mph    
Max Gust Speed 18 mph    
Visibility 7 miles    
Events      
Averages and records for this station are not official NWS values.
T = Trace of Precipitation, MM = Missing Value Source: NWS Daily Summary

Daily Weather History Graph

Daily Weather History Graph

Search for Another Location

Airport:

Trip Planner

Search our weather history database for the weather conditions in past years. The results will help you decide how hot, cold, wet, or windy it might be!

Date:

Astronomy

Dec. 06, 2012 Rise Set
Actual Time 7:07 AM EST 5:07 PM EST
Civil Twilight 6:40 AM EST 5:35 PM EST
Nautical Twilight 6:09 AM EST 6:06 PM EST
Astronomical Twilight 5:39 AM EST 6:36 PM EST
Moon No Moon Rise 12:15 PM EST (12/6)
Length of Visible Light 10h 54m
Length of Day
9h 59m
Waning Gibbous, 49% of the Moon is Illuminated
Dec 6
Waning Gibbous
Dec 13
New
Dec 20
First Quarter
Dec 28
Full
Jan 4
Last Quarter

Hourly Weather History & Observations

Time (EST) Temp. Dew Point Humidity Pressure Visibility Wind Dir Wind Speed Gust Speed Precip Events Conditions
12:15 AM 60.8 °F 59.0 °F 94% 30.16 in 7.0 mi NE 5.8 mph - N/A   Overcast
12:35 AM 60.8 °F 59.0 °F 94% 30.15 in 7.0 mi ENE 6.9 mph - N/A   Overcast
12:55 AM 60.8 °F 59.0 °F 94% 30.15 in 7.0 mi NNE 5.8 mph - N/A   Overcast
1:15 AM 59.0 °F 57.2 °F 94% 30.15 in 7.0 mi NE 10.4 mph - N/A   Overcast
1:35 AM 59.0 °F 57.2 °F 94% 30.15 in 7.0 mi NE 6.9 mph - N/A   Overcast
1:55 AM 59.0 °F 57.2 °F 94% 30.16 in 10.0 mi NE 9.2 mph - N/A   Overcast
2:15 AM 59.0 °F 57.2 °F 94% 30.16 in 7.0 mi NNE 8.1 mph - N/A   Overcast
2:35 AM 59.0 °F 59.0 °F 100% 30.16 in 5.0 mi NNE 6.9 mph - N/A   Overcast
2:55 AM 57.2 °F 57.2 °F 100% 30.16 in 5.0 mi NNE 6.9 mph - N/A   Overcast
3:15 AM 57.2 °F 57.2 °F 100% 30.16 in 4.0 mi NNE 10.4 mph - N/A   Overcast
3:35 AM 55.4 °F 55.4 °F 100% 30.17 in 7.0 mi NE 12.7 mph 16.1 mph N/A   Overcast
3:55 AM 55.4 °F 55.4 °F 100% 30.16 in 7.0 mi NE 10.4 mph - N/A   Overcast
4:15 AM 55.4 °F 55.4 °F 100% 30.17 in 10.0 mi ENE 6.9 mph - N/A   Overcast
4:35 AM 55.4 °F 53.6 °F 94% 30.17 in 7.0 mi NNE 8.1 mph - N/A   Overcast
4:55 AM 53.6 °F 51.8 °F 94% 30.17 in 7.0 mi NNE 6.9 mph - N/A   Overcast
5:15 AM 53.6 °F 51.8 °F 94% 30.17 in 10.0 mi NNE 8.1 mph - N/A   Overcast
5:35 AM 53.6 °F 48.2 °F 82% 30.18 in 7.0 mi NE 10.4 mph - N/A   Overcast
5:55 AM 51.8 °F 44.6 °F 76% 30.19 in 7.0 mi NE 9.2 mph - N/A   Overcast
6:15 AM 51.8 °F 42.8 °F 71% 30.20 in 10.0 mi NE 6.9 mph - N/A   Overcast
8:35 AM 53.6 °F 42.8 °F 67% 30.23 in 7.0 mi NE 8.1 mph - N/A   Overcast
8:55 AM 55.4 °F 44.6 °F 67% 30.23 in 5.0 mi NE 12.7 mph - N/A   Haze
9:15 AM 55.4 °F 42.8 °F 63% 30.24 in 7.0 mi NE 11.5 mph - N/A   Overcast
9:35 AM 53.6 °F 42.8 °F 67% 30.25 in 7.0 mi NNE 10.4 mph - N/A   Overcast
9:55 AM 53.6 °F 42.8 °F 67% 30.25 in 7.0 mi NNE 12.7 mph - N/A   Overcast
10:15 AM 53.6 °F 44.6 °F 72% 30.25 in 7.0 mi ENE 12.7 mph 18.4 mph N/A   Overcast
10:35 AM 53.6 °F 44.6 °F 72% 30.25 in 5.0 mi NE 15.0 mph - N/A   Haze
10:55 AM 53.6 °F 42.8 °F 67% 30.25 in 7.0 mi NNE 15.0 mph - N/A   Overcast
11:15 AM 53.6 °F 42.8 °F 67% 30.24 in 7.0 mi NE 11.5 mph 17.3 mph N/A   Overcast
11:35 AM 53.6 °F 44.6 °F 72% 30.23 in 7.0 mi NNE 10.4 mph - N/A   Overcast
11:55 AM 53.6 °F 44.6 °F 72% 30.22 in 7.0 mi NNE 8.1 mph - N/A   Overcast
12:15 PM 55.4 °F 42.8 °F 63% 30.21 in 5.0 mi NNE 11.5 mph - N/A   Haze
12:35 PM 55.4 °F 44.6 °F 67% 30.20 in 5.0 mi NNE 12.7 mph 16.1 mph N/A   Haze
12:55 PM 55.4 °F 42.8 °F 63% 30.20 in 5.0 mi NNE 8.1 mph - N/A   Haze
1:15 PM 55.4 °F 44.6 °F 67% 30.20 in 5.0 mi North 9.2 mph - N/A   Haze
1:35 PM 55.4 °F 44.6 °F 67% 30.20 in 7.0 mi NE 10.4 mph - N/A   Overcast
1:55 PM 55.4 °F 42.8 °F 63% 30.19 in 7.0 mi North 8.1 mph - N/A   Overcast
2:15 PM 55.4 °F 44.6 °F 67% 30.19 in 7.0 mi NE 9.2 mph - N/A   Overcast
2:35 PM 55.4 °F 42.8 °F 63% 30.19 in 7.0 mi NNE 8.1 mph - N/A   Overcast
2:55 PM 55.4 °F 42.8 °F 63% 30.19 in 7.0 mi NE 8.1 mph - N/A   Overcast
3:15 PM 55.4 °F 42.8 °F 63% 30.19 in 7.0 mi NE 11.5 mph - N/A   Overcast
3:35 PM 55.4 °F 42.8 °F 63% 30.19 in 5.0 mi NE 10.4 mph - N/A   Haze
3:55 PM 53.6 °F 42.8 °F 67% 30.19 in 7.0 mi NNE 9.2 mph - N/A   Overcast
4:15 PM 53.6 °F 42.8 °F 67% 30.20 in 5.0 mi North 8.1 mph - N/A   Haze
4:35 PM 51.8 °F 41.0 °F 67% 30.20 in 7.0 mi North 8.1 mph - N/A   Overcast
4:55 PM 51.8 °F 41.0 °F 67% 30.20 in 5.0 mi NNE 11.5 mph - N/A   Haze
5:15 PM 51.8 °F 41.0 °F 67% 30.20 in 7.0 mi North 8.1 mph - N/A   Overcast
5:35 PM 50.0 °F 41.0 °F 71% 30.20 in 7.0 mi NNE 10.4 mph - N/A   Overcast
5:55 PM 50.0 °F 41.0 °F 71% 30.22 in 7.0 mi NE 8.1 mph - N/A   Overcast
6:15 PM 50.0 °F 41.0 °F 71% 30.22 in 7.0 mi NNE 9.2 mph - N/A   Overcast
6:35 PM 50.0 °F 39.2 °F 66% 30.22 in 10.0 mi NNE 6.9 mph - N/A   Overcast
6:55 PM 50.0 °F 39.2 °F 66% 30.22 in 7.0 mi NNE 9.2 mph - N/A   Overcast
7:15 PM 50.0 °F 39.2 °F 66% 30.22 in 7.0 mi NNE 5.8 mph - N/A   Overcast
7:35 PM 50.0 °F 39.2 °F 66% 30.22 in 7.0 mi North 8.1 mph - N/A   Overcast
7:55 PM 50.0 °F 39.2 °F 66% 30.22 in 7.0 mi NNE 5.8 mph - N/A   Overcast
8:15 PM 50.0 °F 39.2 °F 66% 30.22 in 7.0 mi NNE 6.9 mph - N/A   Overcast
8:35 PM 50.0 °F 39.2 °F 66% 30.21 in 7.0 mi NNE 10.4 mph - N/A   Overcast
8:55 PM 50.0 °F 41.0 °F 71% 30.21 in 7.0 mi NNE 9.2 mph - N/A   Overcast
9:15 PM 50.0 °F 41.0 °F 71% 30.21 in 7.0 mi NNE 5.8 mph - N/A   Overcast
9:35 PM 50.0 °F 41.0 °F 71% 30.20 in 7.0 mi NNE 6.9 mph - N/A   Overcast
9:55 PM 50.0 °F 41.0 °F 71% 30.20 in 7.0 mi NE 6.9 mph - N/A   Overcast
10:15 PM 50.0 °F 41.0 °F 71% 30.19 in 7.0 mi NE 6.9 mph - N/A   Overcast
10:35 PM 50.0 °F 41.0 °F 71% 30.18 in 7.0 mi NNE 6.9 mph - N/A   Overcast
10:55 PM 50.0 °F 41.0 °F 71% 30.18 in 7.0 mi NE 9.2 mph - N/A   Overcast
11:15 PM 50.0 °F 41.0 °F 71% 30.18 in 7.0 mi NE 5.8 mph - N/A   Overcast
11:35 PM 50.0 °F 41.0 °F 71% 30.17 in 7.0 mi NE 6.9 mph - N/A   Overcast
11:55 PM 50.0 °F 41.0 °F 71% 30.15 in 7.0 mi NE 6.9 mph - N/A   Overcast